Regional Weather Roundup
Issued by NWS Jackson, KY

Home | Current Version | Previous Version | Graphics & Text | Print | Product List | Glossary On
Versions: 1 2 3 4 5 6 7 8 9 10 11 12 13 14 15 16 17 18 19 20 21 22 23 24 25 26 27 28 29 30 31 32 33 34 35 36 37 38 39 40 41 42 43 44 45 46 47 48 49 50
000
ASUS43 KJKL 010010
RWRJKL

EAST KENTUCKY HOURLY WEATHER ROUNDUP
NATIONAL WEATHER SERVICE JACKSON KY
800 PM EDT MON AUG 31 2015

NOTE: "FAIR" INDICATES FEW OR NO CLOUDS BELOW 12,000 FEET WITH
NO SIGNIFICANT WEATHER AND/OR OBSTRUCTIONS TO VISIBILITY.

* THESE REPORTS ARE NOT UNDER NWS QUALITY CONTROL AND MAY NOT
  REPORT WEATHER SUCH AS PRECIPITATION AND FOG.

KYZ079-080-083-085-087-088-110-112-115-119-120-010100
...EASTERN KENTUCKY...

CITY           SKY/WX    TMP DP  RH WIND       PRES   REMARKS
JACKSON        CLEAR     80  62  54 CALM      30.11S
6HR MIN TEMP:  79; 6HR MAX TEMP:  85;

LONDON         CLEAR     79  64  60 CALM      30.11R
6HR MIN TEMP:  79; 6HR MAX TEMP:  87;

SOMERSET*      MOCLDY    75  68  78 CALM      30.11S
MONTICELLO*    CLEAR     76  72  87 CALM      30.12S
6HR MIN TEMP:  76; 6HR MAX TEMP:  88;

MIDDLESBORO*   PTCLDY    76  67  73 CALM      30.11R
6HR MIN TEMP:  76; 6HR MAX TEMP:  85;

HAZARD APT*    CLEAR     79  66  65 CALM      30.11S
BLACK MTN*       N/A     66  61  82 N5          N/A
PIKEVILLE APT* CLEAR     75  66  73 CALM      30.11S
BIG SANDY*     CLEAR     78  64  61 CALM      30.10S
6HR MIN TEMP:  78; 6HR MAX TEMP:  85;

MOREHEAD APT*  PTCLDY    79  66  65 CALM      30.11S
$$

KYZ035-036-041-042-044-050-067-078-099-010100
...CENTRAL KENTUCKY...

CITY           SKY/WX    TMP DP  RH WIND       PRES   REMARKS
MT STERLING*   CLEAR     77  70  78 CALM      30.11S
FLEMING/MASON* CLEAR     79  66  65 CALM      30.10S
DANVILLE*      CLEAR     79  63  57 CALM      30.11R
RICHMOND*      CLEAR     81  63  54 CALM      30.09S
LEXINGTON      CLEAR     80  63  55 W3        30.09S
6HR MIN TEMP:  80; 6HR MAX TEMP:  88;

FRANKFORT      CLEAR     80  63  55 W3        30.08S
6HR MIN TEMP:  80; 6HR MAX TEMP:  87;

$$

KYZ091>093-OHZ055-061-077-WVZ005-015-034-035-042-010100
...SOUTHERN OHIO/WEST VIRGINIA...

CITY           SKY/WX    TMP DP  RH WIND       PRES   REMARKS
COVINGTON      PTCLDY    82  65  56 SW3       30.08R
COLUMBUS       MOCLDY    77  66  68 N3        30.06S
DAYTON         MOCLDY    76  70  82 SE5       30.08F
WILMINGTON     PTCLDY    75  67  76 S3        30.08S
HUNTINGTON     PTCLDY    75  70  84 SW5       30.08S
CHARLESTON     PTCLDY    78  68  71 CALM      30.07S
PINEVILLE*     CLOUDY    72  71  95 MISG      30.18S
BECKLEY        CLEAR     69  63  81 S6        30.17S
BLUEFIELD      PTCLDY    75  60  59 CALM      30.19S
$$

VAZ002-007-008-TNZ017-027-036-066-071-010100
...SOUTHWEST VIRGINIA/EAST TENNESSEE...

CITY           SKY/WX    TMP DP  RH WIND       PRES   REMARKS
WISE*          PTCLDY    72  59  64 N3        30.20R
JONESVILLE*    PTCLDY    75  66  73 CALM      30.13S
ABINGDON*      CLEAR     75  64  67 CALM      30.14S
BRISTOL        CLEAR     77  65  66 CALM      30.11R
KNOXVILLE      PTCLDY    82  62  50 NE5       30.07S
OAK RIDGE      CLEAR     80  66  62 CALM      30.09S
CROSSVILLE     CLEAR     73  66  78 CALM      30.14F
NASHVILLE      PTCLDY    83  60  45 E5        30.07F
$$

...KEY TO REMARKS...
VSB - VISIBILITY IN MILES
WCI - WIND CHILL INDEX
HX  - HEAT INDEX

$$


USA.gov is the U.S. government's official web portal to all federal, state and local government web resources and services.